Uitslag Triatlon Izegem top 3

# Naam Totaal
1 HEEMERYCK Pieter 01:46:54 87.07
2 Geens Jelle 01:51:53 83.02
3 Colpaert Bart 01:52:08 82.88
4 De Grooff David 01:54:06 81.75
5 Cool Hannes 01:54:11 81.70
6 Dircken Lander 01:54:20 81.62
7 Vandermoere Hannes 01:54:41 81.42
8 Goetstouwers Stenn 01:54:59 81.25
9 Vande Capelle Ward 01:55:42 80.84
10 Missinne Maarten 01:56:10 80.57
11 Cardoen Olivier 01:56:50 80.19
12 Stubbe Matthias 01:57:09 80.01
13 Van Heirseele Steven 01:57:36 79.75
14 De Hertog Kjel 01:57:47 79.64
15 Dewilde Michael 01:58:10 79.43
16 Ameye Joeri 01:58:31 79.23
17 Vanhee Pieter 01:58:39 79.15
18 Dewitte Lowie 01:58:53 79.02
19 Vos Davy 01:59:17 78.79
20 De Jonghe Lukas 01:59:26 78.70
21 Steyaert Kris 01:59:44 78.53
22 scherpereel steven 02:00:20 78.19
23 Lagae Korneel 02:00:29 78.10
24 Horsten Niels 02:00:34 78.05
25 Laureys Matthias 02:01:05 77.76
26 Couckuyt Nico 02:01:14 77.67
27 Becquart Bart 02:01:21 77.60
28 Deman Timmy 02:01:31 77.51
29 De Vrieze Bart 02:01:43 77.39
30 Laevens Bram 02:02:07 77.17
31 Van Lierde Vincent 02:02:39 76.86
32 Cornelissen Xavier 02:02:57 76.69
33 Wambeke Jan 02:03:01 76.65
34 Verkempinck Ruben 02:03:17 76.50
35 Vanhoutteghem Olivier 02:03:28 76.39
36 Nellen Maïk 02:03:41 76.27
37 Vanhee Thijs 02:04:30 75.80
38 Bruggeman Tom 02:04:34 75.76
39 Deruyck Bram 02:04:49 75.62
40 Vanallemeersch Jan 02:04:54 75.57
41 Verstraete Eduard 02:05:02 75.50
42 De Bruyn Sam 02:05:11 75.41
43 Deman Kevin 02:05:12 75.40
44 Vanassche Marc 02:06:06 74.89
45 Kerckhof Tom 02:06:36 74.60
46 Coysman Joke 02:06:38 80.32
47 Matthys Marc 02:07:01 74.36
48 Geerts Luc 02:07:06 74.32
49 Callebaut Hannes 02:07:22 74.16
50 Vaneyghen Tijl 02:07:25 74.13
51 Vandevoorde Ruben 02:07:34 74.05
52 Bes Senne 02:08:07 73.73
53 Van Hooreweder Michiel 02:08:33 73.49
54 Deldaele Charlotte 02:08:40 78.05
55 Bogaert Mike 02:08:46 73.36
56 Glorie Romeo 02:08:58 73.25
57 Desmedt Kristof 02:09:00 73.23
58 Decottignies Robin 02:09:05 73.18
59 Deruyck Bert 02:09:07 73.16
60 Persyn Jonas 02:09:08 73.15
61 Huysseune Luc 02:09:34 72.90
62 Van Den Berge Jo 02:09:55 72.70
63 Ptacek David 02:10:41 72.27
64 Vandenberghe Rudi 02:10:45 72.23
65 Bossuyt Lieselot 02:10:45 76.95
66 Vanhoutte Witze 02:10:58 72.10
67 VANLERBERGHE Joost 02:11:06 72.03
68 Haeghebaert Lode 02:11:12 71.97
69 Perneel Guillaume 02:11:20 71.89
70 Debouck Kurt 02:11:42 71.68
71 Lemey Henk 02:11:44 71.67
72 Vandenbroucke Louise 02:11:47 76.41
73 Linda Vitova 02:11:59 76.30
74 Baert Jimmy 02:12:02 71.49
75 D'haene Gert-Jan 02:12:25 71.27
76 Roosebrouck Alain 02:12:31 71.22
77 Ryde Marc 02:12:31 71.22
78 Baekelandt Koen 02:12:39 71.14
79 Laflere Lieven 02:12:46 71.07
80 Segaert Frank 02:12:50 71.04
81 Mahieu Lorenzo 02:12:57 70.97
82 Lecluyse Matthijs 02:13:01 70.93
83 Lefevre Alex 02:13:03 70.91
84 Verlinde Marnik 02:13:07 70.87
85 Boussy Frederik 02:13:18 70.77
86 Weuts Karolien 02:13:33 75.48
87 Verdonck Christine 02:13:41 75.41
88 Vanden Daelen Leen 02:13:44 75.38
89 Seynaeve Bert 02:13:50 70.46
90 Dekeersschieter Sam 02:13:50 70.46
91 Dams Lars 02:13:53 70.44
92 De Rynck Bruno 02:14:00 70.37
93 Stevens Jelle 02:14:11 70.26
94 Demyttenaere Frédéric 02:14:18 70.20
95 Fauvart Hans 02:14:20 70.18
96 Angillis Eddy 02:14:21 70.17
97 Vercaigne Dieter 02:14:45 69.94
98 Vernaillen Bart 02:14:48 69.91
99 Ottevaere Charlene 02:14:57 74.74
100 Devos Wim 02:15:04 69.76
101 De Nys Andy 02:15:06 69.74
102 Omey Henk 02:15:06 69.74
103 Colpaert Filip 02:15:27 69.54
104 De Smet John 02:15:42 69.40
105 Adams Heleen 02:16:08 74.12
106 Soenen Nico 02:16:08 69.15
107 Van Nieuwenhuyse Bregt 02:16:12 69.11
108 Cornette Wouter 02:16:28 68.96
109 Verbeke Sammy 02:16:30 68.94
110 Callens Bart 02:16:41 68.83
111 Van Dyck Peter 02:16:48 68.77
112 Youri Groosman 02:17:02 68.63
113 Loosveld Tom 02:17:20 68.46
114 Breemeersch Lieven 02:17:20 68.46
115 Ossieur Romain 02:17:32 68.35
116 Cauwelier Wannes 02:17:41 68.26
117 Pollentier Björn 02:17:48 68.19
118 Verhelst Hein 02:17:55 68.13
119 Demeulenaere Bart 02:17:56 68.12
120 Sigmans Peter 02:18:08 68.00
121 De Clercq Stefaan 02:18:19 67.90
122 Verschueren Thomas 02:18:22 67.87
123 Deroeck Robin 02:18:28 67.81
124 Cottem Vincent 02:18:55 67.56
125 Roose Wouter 02:19:00 67.51
126 Bellet Jean-Francois 02:19:00 67.51
127 Deforche Peter 02:19:03 67.48
128 Uytterschaut Dany 02:19:15 67.37
129 Tom Veranneman 02:19:16 67.36
130 Moerman Rudy 02:19:18 67.34
131 Vercaigne Andy 02:19:31 67.21
132 Devarwaere Koen 02:19:34 67.18
133 Remmerie Siggi 02:19:40 67.13
134 Vuylsteke Bart 02:19:48 67.05
135 Verstraete Diederik 02:20:12 66.82
136 Herreman Linde 02:20:14 71.96
137 De Meyere Hein 02:20:28 66.67
138 Sobrie Nathan 02:20:38 66.57
139 Vanderper Bruno 02:20:46 66.50
140 Dousy Frederik 02:20:47 66.49
141 Stubbe Frank 02:20:50 66.46
142 Christiaens Wim 02:20:50 66.46
143 Callens Ruben 02:21:03 66.34
144 Denolf Karl 02:21:04 66.33
145 Vervaet Martin 02:21:13 66.24
146 Roels Jonas 02:21:32 66.06
147 Terryn Terryn 02:21:33 66.05
148 Vanbelleghem Sem 02:21:40 65.98
149 Blomme Marieke 02:21:47 71.14
150 Declercq Bjorn 02:22:03 65.76
151 Dull Georg 02:22:11 65.69
152 Debaere Brent 02:22:18 65.62
153 Verstraete Kaz 02:22:25 65.55
154 Debruyne Dieter 02:22:31 65.50
155 Verleyen Mathieu 02:22:31 65.50
156 Schotte Tom 02:22:41 65.40
157 Strosse Stijn 02:22:57 65.25
158 Vansteenkiste Stephan 02:22:58 65.24
159 Dewulf Davy 02:23:16 65.07
160 Desimpel Pieter 02:23:19 65.04
161 Wastyn Glenn 02:23:27 64.96
162 Dewitte Bart 02:23:33 64.91
163 Deforche Karel 02:23:42 64.82
164 De Coninck Erika 02:23:44 70.11
165 Parein Filiep 02:23:50 64.74
166 Tytgat Joost 02:24:03 64.62
167 Decaestecker Kris 02:24:04 64.61
168 Vandevoorde Emilie 02:24:18 69.82
169 Blondeel Wouter 02:24:19 64.47
170 De Boeck Gina 02:24:40 69.62
171 Belaen Peter 02:24:47 64.20
172 Vandromme Olav 02:24:57 64.11
173 Vandeputte Jan 02:25:09 63.99
174 Vanpoucke Bart 02:25:14 63.94
175 Vandervoort Kevin 02:25:18 63.90
176 Ketels Bram 02:25:22 63.87
177 Feryn Hans 02:25:27 63.82
178 Darras Koen 02:25:29 63.80
179 Pattyn Hein 02:26:20 63.31
180 De Deene Veronique 02:26:21 68.74
181 Devos Ephrem 02:26:21 63.30
182 Bruggeman Edwin 02:26:44 63.09
183 SALEMBIER JOOST 02:27:08 62.86
184 Gunst Francis 02:27:14 62.80
185 Vandecasteele Manu 02:27:27 62.68
186 Casier Brecht 02:27:32 62.63
187 De Wulf Thomas 02:27:42 62.53
188 Maes Stefaan 02:27:43 62.52
189 Robaey Nick 02:27:54 62.42
190 Lauwers Hannes 02:27:55 62.41
191 Cuepers Rony 02:28:08 62.28
192 De Lombaert Luc 02:28:09 62.27
193 Van Hove Janne 02:28:10 67.78
194 Dickx Nico 02:28:11 62.26
195 Deneckere Nicolas 02:28:12 62.25
196 Boyen Florian 02:28:16 62.21
197 Brouckaert Joost 02:28:27 62.10
198 Van De Velde Charlotte 02:28:31 67.60
199 Soete Pieter 02:28:46 61.92
200 Vansteenkiste Kevin 02:28:56 61.83
201 Van Den Bulcke Sebastien 02:29:42 61.39
202 Doise Wim 02:29:52 61.29
203 Naessens Seppe 02:29:55 61.26
204 Battheu Michiel 02:29:55 61.26
205 Devos Lode 02:29:55 61.26
206 Vermeulen William 02:29:58 61.24
207 Buschop Hilde 02:30:04 66.78
208 Tyteca Walter 02:30:08 61.14
209 De Laere Stan 02:30:10 61.12
210 Labaere Brian 02:30:13 61.09
211 Billion Amber 02:30:24 66.60
212 Tineke Tempelaere 02:30:32 66.53
213 Lingier Ives 02:30:52 60.72
214 Decavel Bram 02:30:53 60.71
215 Foulon Frederik 02:31:03 60.62
216 Vekemans Bert 02:31:15 60.50
217 Vandenbussche Wannes 02:31:17 60.48
218 Glorieux Ann-sophie 02:31:19 66.12
219 Lapierre Theo 02:31:35 60.31
220 Himbrecht Gunther 02:31:39 60.27
221 Boone Koen 02:31:41 60.25
222 Coussement Tom 02:31:45 60.22
223 Ballyn Korneel 02:31:47 60.20
224 Caesemaeker Christophe 02:31:51 60.16
225 Muchery Xavier 02:32:16 59.92
226 Vandeputte Rik 02:32:18 59.90
227 Wydaeghe Jeroen 02:32:19 59.89
228 Pattyn Wouter 02:32:25 59.83
229 Huyghe Stefaan 02:32:30 59.79
230 Martens Floor 02:32:37 65.44
231 Delbeke Carl-philippe 02:32:41 59.68
232 Gouwy Stijn 02:33:03 59.47
233 Devoldere Kristof 02:33:06 59.44
234 Samyn Lode 02:33:10 59.41
235 Vanden Bussche Birgit 02:33:17 65.09
236 Peters Jeroen 02:33:19 59.32
237 Decoutere Sylvia 02:33:31 64.96
238 Derhore Jonathan 02:34:18 58.76
239 De Meulenaere Gunther 02:34:45 58.50
240 Synaeve Wim 02:34:48 58.47
241 Werbrouck Vincent 02:34:49 58.46
242 Vandewaetere Joost 02:35:10 58.26
243 Duyck Jody 02:35:13 58.23
244 Verfaillie Franky 02:35:15 58.21
245 Vande Casteele Justin 02:35:23 58.14
246 Lerminez Diego 02:35:29 58.08
247 Legein Frederick 02:35:29 58.08
248 Vanoutryve Hannes 02:35:33 58.04
249 Ketele Johan 02:35:57 57.81
250 Weyts Koen 02:36:05 57.74
251 Verheust Thierry 02:36:15 57.64
252 Boone Bruno 02:36:25 57.55
253 Glaude Geert 02:36:50 57.31
254 Demyttenaere Karel 02:37:10 57.12
255 Couckuyt Delphine 02:37:26 62.90
256 Godderis Luc 02:37:28 56.95
257 Bulckaen Kris 02:37:40 56.83
258 Colpaert Alexander 02:38:05 56.59
259 Iwens Eli 02:38:21 56.44
260 Lamote Bert 02:38:26 56.39
261 Decoene Frederik 02:38:53 56.14
262 Catry Hans 02:39:22 55.86
263 De Boever Jurgen 02:39:40 55.69
264 Ronny Vanbelle 02:39:51 55.58
265 Lagae Elodie 02:39:51 61.63
266 Collet Lucas 02:40:15 55.35
267 De Deijne Kristof 02:40:19 55.32
268 Van Maele Nick 02:40:50 55.02
269 Margo Koen 02:41:13 54.80
270 Tanghe Heleen 02:41:18 60.86
271 Pieters Maarten 02:41:25 54.69
272 Verstraete Wim 02:41:30 54.64
273 Depreux Kristof 02:41:52 54.43
274 Vanderschueren Marc 02:42:05 54.30
275 Viaene Florian 02:42:34 54.03
276 Samaey Ynak 02:42:43 60.12
277 Van Pottelberghe 02:43:08 53.70
278 Vanlerberghe Filip 02:43:10 53.69
279 Masen Peter 02:43:17 53.62
280 De Blaere Henk 02:43:25 53.54
281 Guidee Christiaan 02:43:45 53.35
282 Van Osselaer Jan 02:43:46 53.34
283 Grammens Christophe 02:43:51 53.29
284 Crevits Patrick 02:44:06 53.15
285 Desmet Thomas 02:44:40 52.83
286 Ossieur Patrick 02:45:09 52.55
287 Fidlers Luc 02:45:20 52.45
288 Decock Willem 02:45:35 52.30
289 Borra Wouter 02:45:37 52.28
290 Derhore Mathias 02:46:10 51.97
291 Decrock Pedro 02:46:17 51.90
292 Claessens Bart 02:46:19 51.88
293 Vandamme Nancy 02:48:00 57.34
294 Spillebeen Pieter 02:48:37 50.57
295 Van Wayenbergh Kurt 02:48:47 50.47
296 De Jonghe Richie 02:48:53 50.42
297 Borry Christophe 02:49:21 50.15
298 Missinne Lieven 02:49:32 50.04
299 Bauduin Raphael 02:50:06 49.72
300 Hoste Brian 02:50:42 49.38
301 Bullynck Nick 02:50:45 49.35
302 Bauduin Genevieve 02:51:24 55.54
303 De Tavernier Jan 02:51:25 48.97
304 Flor-jan 02:51:47 48.76
305 Decroos Koenraad 02:52:14 48.50
306 Raes Annelies 02:52:57 54.73
307 Lecointre Frank 02:53:02 48.04
308 Mouset Ulrich 02:53:22 47.85
309 Deceuninck Charlotte 02:54:01 54.17
310 Remaut Johan 02:54:31 47.19
311 Rafaa Philippe 02:55:39 46.54
312 Samoy Katrien 02:55:56 53.16
313 Deleersnyder Guy 02:57:14 45.64
314 Bruyneel Steven 02:57:20 45.58
315 Janssen Robby 02:58:30 44.91
316 Beels Dieter 02:59:10 44.53
317 Boels Vera 02:59:53 51.08
318 Maddens Kurt 03:00:07 43.99
319 Pyck Kristel 03:00:18 50.86
320 LINSEN Martijn 03:00:22 43.85
321 Coghe Frederik 03:03:33 42.03
322 Deblauwe Bart 03:03:59 41.78
323 Rigole Tina 03:04:04 48.87
324 Hugo Ghyselen 03:05:51 40.21
325 Werbrouck Nancy 03:06:28 47.11

Reacties

  • 4 jaar geleden

    Proficiat aan de organisatie en de vele supporters!!

  • 4 jaar geleden

    zeer mooi georganiseerd en was zeer plezant !!